This is the latest recevied weather packets stored in our database for station/object KE4EST. If no packets are shown the sender has not sent any weather packets the latest 1 day(s).
| Time | Temp. | Humidity | Pressure | Rain* | Wind** | Luminosity | Snow |
|---|---|---|---|---|---|---|---|
| 1777996389 | 22.22° C | 46% | 1016.4 hPa | 0 mm | 0 m/s | 187 W/m² | - |
| 1777996086 | 21.67° C | 48% | 1016.4 hPa | 0 mm | 0 m/s | 149 W/m² | - |
| 1777995783 | 20.56° C | 50% | 1016.4 hPa | 0 mm | 0.89 m/s, 154° | 211 W/m² | - |
| 1777995479 | 21.67° C | 51% | 1016.2 hPa | 0 mm | 0.45 m/s, 132° | 86 W/m² | - |
| 1777995176 | 21.67° C | 52% | 1016.3 hPa | 0 mm | 0 m/s | 116 W/m² | - |
| 1777994874 | 21.67° C | 52% | 1016.8 hPa | 0 mm | 0 m/s | 128 W/m² | - |
| 1777994569 | 21.67° C | 53% | 1016.5 hPa | 0 mm | 0 m/s | 64 W/m² | - |
| 1777994264 | 20.56° C | 52% | 1016.7 hPa | 0 mm | 0 m/s | 71 W/m² | - |
| 1777993962 | 20° C | 58% | 1016.9 hPa | 0 mm | 0.45 m/s, 114° | 72 W/m² | - |
| 1777993658 | 20° C | 51% | 1017.1 hPa | 0 mm | 0 m/s | 96 W/m² | - |
| 1777993355 | 20° C | 57% | 1016.6 hPa | 0 mm | 0 m/s | 99 W/m² | - |
| 1777993050 | 20° C | 51% | 1016.7 hPa | 0 mm | 0.45 m/s, 86° | 119 W/m² | - |
| 1777992749 | 20° C | 55% | 1016.6 hPa | 0 mm | 0 m/s | 108 W/m² | - |
| 1777992446 | 19.44° C | 54% | 1016.6 hPa | 0 mm | 0.45 m/s, 91° | 81 W/m² | - |
| 1777992144 | 19.44° C | 53% | 1016.8 hPa | 0 mm | 0 m/s | 80 W/m² | - |
| 1777991841 | 18.89° C | 58% | 1016.7 hPa | 0 mm | 0 m/s | 88 W/m² | - |
| 1777991538 | 19.44° C | 61% | 1016.8 hPa | 0 mm | 0 m/s | 96 W/m² | - |
| 1777991235 | 18.89° C | 59% | 1016.6 hPa | 0 mm | 0 m/s | 101 W/m² | - |
| 1777990932 | 18.89° C | 63% | 1016.7 hPa | 0 mm | 0 m/s | 100 W/m² | - |
| 1777990630 | 17.78° C | 67% | 1016.9 hPa | 0 mm | 0 m/s | 119 W/m² | - |
| 1777990327 | 17.78° C | 69% | 1016.8 hPa | 0 mm | 0 m/s | 107 W/m² | - |
| 1777990023 | 17.22° C | 70% | 1016.8 hPa | 0 mm | 0.45 m/s, 97° | 101 W/m² | - |
| 1777989720 | 16.67° C | 71% | 1016.7 hPa | 0 mm | 0 m/s | 62 W/m² | - |
| 1777989416 | 15.56° C | 72% | 1016.6 hPa | 0 mm | 0 m/s | 47 W/m² | - |
| 1777989113 | 15.56° C | 75% | 1016.9 hPa | 0 mm | 0 m/s | 42 W/m² | - |
* Rain latest hour (hover to see other rain measurements)
** Current wind speed in m/s (hover to see current wind gust speed)